Weather History for Cork, Ireland

Change the Weather History Date:

Monday, January 14, 2013

  Actual Average Record
Temperature  
Mean Temperature 42 °F -  
Max Temperature 45 °F 46 °F 53 °F (2002)
Min Temperature 39 °F 37 °F 28 °F (2015)
Degree Days  
Heating Degree Days 23    
Moisture  
Dew Point 40 °F    
Average Humidity 90    
Maximum Humidity 100    
Minimum Humidity 80    
Precipitation  
Precipitation 0.08 in 0.17 in - ()
Sea Level Pressure  
Sea Level Pressure 30.04 in    
Wind  
Wind Speed 12 mph ()    
Max Wind Speed 18 mph    
Max Gust Speed -    
Visibility 6.1 miles    
Events Rain    
Averages and records for this station are not official NWS values.
T = Trace of Precipitation, MM = Missing Value Source: Averaged Metar Reports

Daily Weather History Graph

Daily Weather History Graph

Search for Another Location

Airport:

Trip Planner

Search our weather history database for the weather conditions in past years. The results will help you decide how hot, cold, wet, or windy it might be!

Date:

Astronomy

Jan. 14, 2013 Rise Set
Actual Time 8:35 AM GMT 4:51 PM GMT
Civil Twilight 7:56 AM GMT 5:30 PM GMT
Nautical Twilight 7:13 AM GMT 6:12 PM GMT
Astronomical Twilight 6:33 AM GMT 6:53 PM GMT
Moon 9:33 AM GMT (1/14) 8:53 PM GMT (1/14)
Length of Visible Light 9h 34m
Length of Day
8h 16m
Waxing Crescent, 10% of the Moon is Illuminated
Jan 14
Waxing Crescent
Jan 18
First Quarter
Jan 27
Full
Feb 3
Last Quarter
Feb 10
New

Hourly Weather History & Observations

Time (GMT) Temp. Windchill Dew Point Humidity Pressure Visibility Wind Dir Wind Speed Gust Speed Precip Events Conditions
12:00 AM 40 °F - 39 °F 96% 30.19 in 22 mi West 11.2 mph - -   Partly Cloudy
12:00 AM 41.0 °F 34.3 °F 39.2 °F 93% 30.15 in 6.2 mi West 11.5 mph - N/A   Scattered Clouds
12:30 AM 41.0 °F 34.3 °F 39.2 °F 93% 30.15 in 6.2 mi West 11.5 mph - N/A   Mostly Cloudy
1:00 AM 41.0 °F 34.7 °F 39.2 °F 93% 30.15 in 6.2 mi WNW 10.4 mph - N/A   Mostly Cloudy
1:30 AM 41.0 °F 34.7 °F 39.2 °F 93% 30.15 in 6.2 mi West 10.4 mph - N/A   Mostly Cloudy
2:00 AM 41.0 °F 35.2 °F 41.0 °F 100% 30.12 in 6.2 mi West 9.2 mph - N/A   Mostly Cloudy
2:30 AM 41.0 °F 33.9 °F 39.2 °F 93% 30.12 in 6.2 mi West 12.7 mph - N/A   Mostly Cloudy
3:00 AM 41.0 °F 33.9 °F 39.2 °F 93% 30.12 in 6.2 mi West 12.7 mph - N/A   Mostly Cloudy
3:30 AM 41.0 °F 34.3 °F 39.2 °F 93% 30.12 in 6.2 mi West 11.5 mph - N/A   Mostly Cloudy
4:00 AM 41.0 °F 34.3 °F 41.0 °F 100% 30.09 in 6.2 mi WSW 11.5 mph - N/A   Mostly Cloudy
4:30 AM 41.0 °F 34.7 °F 41.0 °F 100% 30.09 in 6.2 mi WSW 10.4 mph - N/A   Mostly Cloudy
5:00 AM 41.0 °F 34.7 °F 41.0 °F 100% 30.06 in 6.2 mi WSW 10.4 mph - N/A   Mostly Cloudy
5:30 AM 41.0 °F 35.2 °F 41.0 °F 100% 30.06 in 4.3 mi SW 9.2 mph - N/A   Light Drizzle
6:00 AM 41 °F - 41 °F 100% 30.08 in 3 mi WSW 8.9 mph - - Rain Light Drizzle
6:00 AM 41.0 °F 35.8 °F 41.0 °F 100% 30.04 in 3.1 mi WSW 8.1 mph - N/A   Light Drizzle
6:30 AM 42.8 °F 36.6 °F 42.8 °F 100% 30.04 in 6.2 mi West 11.5 mph - N/A   Mostly Cloudy
7:00 AM 42.8 °F 36.2 °F 42.8 °F 100% 30.04 in 3.7 mi NW 12.7 mph - N/A Rain Light Rain Showers
7:30 AM 44.6 °F 37.2 °F 42.8 °F 93% 30.04 in 6.2 mi WNW 17.3 mph - N/A   Mostly Cloudy
8:00 AM 44.6 °F 37.2 °F 41.0 °F 87% 30.04 in 6.2 mi WNW 17.3 mph - N/A   Mostly Cloudy
8:30 AM 44.6 °F 37.4 °F 41.0 °F 87% 30.04 in 6.2 mi NW 16.1 mph - N/A   Mostly Cloudy
9:00 AM 44.6 °F 37.2 °F 41.0 °F 87% 30.04 in 6.2 mi NW 17.3 mph - N/A   Mostly Cloudy
9:30 AM 44.6 °F 36.9 °F 41.0 °F 87% 30.04 in 6.2 mi NW 18.4 mph - N/A   Mostly Cloudy
10:00 AM 44.6 °F 37.2 °F 41.0 °F 87% 30.04 in 6.2 mi NW 17.3 mph - N/A Rain Light Rain Showers
10:30 AM 44.6 °F 37.4 °F 41.0 °F 87% 30.04 in 6.2 mi WNW 16.1 mph - N/A   Mostly Cloudy
11:00 AM 44.6 °F 38.1 °F 41.0 °F 87% 30.04 in 6.2 mi NW 13.8 mph - N/A   Scattered Clouds
11:30 AM 42.8 °F 36.2 °F 41.0 °F 93% 30.04 in 6.2 mi NNW 12.7 mph - N/A Rain Light Rain Showers
12:00 PM 43 °F - 41 °F 92% 30.05 in 22 mi WNW 11.2 mph - - Rain Light Rain Showers
12:00 PM 42.8 °F 36.6 °F 41.0 °F 93% 30.04 in 6.2 mi WNW 11.5 mph - N/A   Mostly Cloudy
12:30 PM 44.6 °F 38.4 °F 41.0 °F 87% 30.01 in 6.2 mi WNW 12.7 mph - N/A   Mostly Cloudy
1:00 PM 44.6 °F 37.8 °F 41.0 °F 87% 30.01 in 6.2 mi WNW 15.0 mph - N/A   Mostly Cloudy
1:30 PM 44.6 °F 37.8 °F 41.0 °F 87% 29.98 in 6.2 mi NW 15.0 mph - N/A   Scattered Clouds
2:00 PM 44.6 °F 37.4 °F 41.0 °F 87% 29.98 in 6.2 mi WNW 16.1 mph - N/A   Mostly Cloudy
2:30 PM 44.6 °F 38.1 °F 39.2 °F 81% 29.98 in 6.2 mi NW 13.8 mph - N/A   Mostly Cloudy
3:00 PM 42.8 °F 35.4 °F 41.0 °F 93% 29.98 in 6.2 mi NW 15.0 mph - N/A   Mostly Cloudy
3:30 PM 44.6 °F 38.4 °F 41.0 °F 87% 29.98 in 6.2 mi NW 12.7 mph - N/A   Mostly Cloudy
4:00 PM 44.6 °F 37.8 °F 39.2 °F 81% 29.98 in 6.2 mi NW 15.0 mph - N/A   Scattered Clouds
4:30 PM 42.8 °F 35.8 °F 39.2 °F 87% 29.98 in 6.2 mi NW 13.8 mph - N/A   Scattered Clouds
5:00 PM 42.8 °F 35.1 °F 39.2 °F 87% 29.98 in 6.2 mi NW 16.1 mph - N/A   Mostly Cloudy
5:30 PM 42.8 °F 34.8 °F 39.2 °F 87% 29.98 in 6.2 mi NW 17.3 mph - N/A   Mostly Cloudy
6:00 PM 42 °F - 38 °F 80% 30.01 in 12 mi NW 17.9 mph - - Rain Light Rain Showers
6:00 PM 42.8 °F 34.8 °F 37.4 °F 81% 29.98 in 6.2 mi NW 17.3 mph - N/A   Mostly Cloudy
6:30 PM 41.0 °F 32.2 °F 37.4 °F 87% 29.98 in 6.2 mi NW 18.4 mph - N/A   Mostly Cloudy
7:00 PM 41.0 °F 32.2 °F 37.4 °F 87% 29.98 in 6.2 mi NW 18.4 mph - N/A   Mostly Cloudy
7:30 PM 41.0 °F 33.1 °F 37.4 °F 87% 29.98 in 6.2 mi NW 15.0 mph - N/A   Mostly Cloudy
8:00 PM 41.0 °F 33.1 °F 37.4 °F 87% 29.98 in 6.2 mi NW 15.0 mph - N/A   Scattered Clouds
8:30 PM 41.0 °F 33.1 °F 37.4 °F 87% 29.98 in 6.2 mi NW 15.0 mph - N/A   Scattered Clouds
9:00 PM 41.0 °F 33.5 °F 37.4 °F 87% 29.98 in 6.2 mi NW 13.8 mph - N/A   Scattered Clouds
9:30 PM 41.0 °F 32.8 °F 35.6 °F 81% 29.98 in 6.2 mi NW 16.1 mph - N/A   Partly Cloudy
10:00 PM 39.2 °F 30.5 °F 35.6 °F 87% 29.98 in 6.2 mi NW 16.1 mph - N/A   Partly Cloudy
10:30 PM 39.2 °F 30.8 °F 35.6 °F 87% 29.98 in 6.2 mi NW 15.0 mph - N/A   Partly Cloudy
11:00 PM 39.2 °F 31.2 °F 35.6 °F 87% 29.98 in 6.2 mi NW 13.8 mph - N/A   Partly Cloudy
11:30 PM 39.2 °F 31.6 °F 33.8 °F 81% 29.98 in 6.2 mi NW 12.7 mph - N/A   Partly Cloudy